Regional Weather Roundup
Issued by NWS

Home | Current Version | Previous Version | Graphics & Text | Print | Product List | Glossary On
Versions: 1 2 3 4 5 6 7 8 9 10 11 12 13 14 15 16 17 18 19 20 21 22 23 24 25 26 27 28 29 30 31 32 33 34 35 36 37 38 39 40 41 42 43 44 45 46 47 48 49 50
808
ASUS43 KMPX 261510
RWRMN
WEATHER ROUNDUP FOR MINNESOTA
NATIONAL WEATHER SERVICE TWIN CITIES/CHANHASSEN MN
1000 AM CDT SUN MAR 26 2017


NOTE: "FAIR" INDICATES FEW OR NO CLOUDS BELOW 12,000 FEET WITH NO
SIGNIFICANT WEATHER AND/OR OBSTRUCTIONS TO VISIBILITY. N/A MEANS
CURRENT SKY AND/OR WEATHER CONDITIONS ARE NOT AVAILABLE.

MNZ060>063-068>070-261600-
   Twin Cities Metro

CITY           SKY/WX    TMP DP  RH WIND       PRES   REMARKS
TWIN CITIES    CLOUDY    38  34  85 NE7       29.94F
ST PAUL        CLOUDY    37  36  96 N7        29.95F
CRYSTAL        CLOUDY    37  34  89 N7        29.94F FOG
BLAINE         CLOUDY    37  37 100 N8        29.95F FOG
LAKEVILLE      CLOUDY    36  36 100 N6        29.93S FOG
EDEN PRAIRIE   CLOUDY    39  36  89 N7        29.93F FOG
SOUTH ST PAUL  CLOUDY    37  36  96 N3        29.94S
LAKE ELMO      CLOUDY    36  36 100 N7        29.95F FOG
$$
MNZ001>005-007-008-013>017-022>024-027-028-261600-
   Northwest Minnesota

CITY           SKY/WX    TMP DP  RH WIND       PRES   REMARKS
BEMIDJI        CLOUDY    33  32  95 CALM      29.97F
HALLOCK        CLOUDY    34  34 100 S9        29.94F FOG     WCI  26
ROSEAU         CLOUDY    36  30  80 S9        29.95F
WARROAD        CLOUDY    36  30  80 S3        29.96S
THIEF RVR FALL CLOUDY    35  32  88 S7        29.98R WCI  29
CROOKSTON      CLOUDY    36  36 100 S8        29.97F FOG
FOSSTON        CLOUDY    34  30  86 S5        29.97S WCI  30
DETROIT LAKES  CLOUDY    36  32  87 SE3       29.98S
MOORHEAD       CLOUDY    34  34 100 CALM      29.99S
PARK RAPIDS    CLOUDY    36  29  75 E3        29.96F
MAHNOMEN       CLOUDY    36  32  86 S3        29.97S
$$
MNZ006-009>011-018-025>026-261600-
   North Central Minnesota

CITY           SKY/WX    TMP DP  RH WIND       PRES   REMARKS
BAUDETTE       CLOUDY    36  31  82 S5        29.97S
FLAG ISLAND    CLOUDY    32  30  93 S10       29.95F WCI  24
INTL FALLS     CLOUDY    34  29  82 SE5       29.98F WCI  30
WASKISH        CLOUDY    36  34  93 SE3       29.98S
BIG FORK       CLOUDY    36  32  87 S3        29.98S
LONGVILLE      CLOUDY    34  30  86 CALM      29.98S
GRAND RAPIDS   CLOUDY    33  30  88 NE5       30.00S WCI  29
CRANE LAKE     CLOUDY    34  30  86 CALM      30.02S
ORR            CLOUDY    34  28  80 CALM      29.97S
COOK           CLOUDY    34  28  80 CALM      29.99F
WALKER         CLOUDY    32  31  96 E3        29.98S
$$
MNZ012-019>021-037-261600-
   Northeast Minnesota

CITY           SKY/WX    TMP DP  RH WIND       PRES   REMARKS
DULUTH         LGT RAIN  33  32  96 E6        29.96F FOG     WCI  28
ELY            CLOUDY    30  28  93 CALM      29.98F
HIBBING        CLOUDY    32  30  92 NE3       29.98F
EVELETH        CLOUDY    32  29  88 NE3       29.99F
DULUTH HARBOR  DRIZZLE   34  34 100 NE8       30.01S WCI  27
TWO HARBORS    LGT RAIN  36  30  80 NE5       29.97S
SILVER BAY     DRIZZLE   34  34 100 NE3       29.97F
GRAND MARAIS     N/A     34  32  92 NE8       30.02F WCI  27
G MARAIS ARPRT MIX PCPN  28  25  86 NE6       29.98S WCI  22
$$
MNZ029>031-032-039>041-046>048-054>057-064-261600-
   West Central Minnesota

CITY           SKY/WX    TMP DP  RH WIND       PRES   REMARKS
FERGUS FALLS   CLOUDY    36  32  87 CALM      30.01S
WHEATON        CLOUDY    37  37 100 CALM      29.99S FOG
MORRIS         CLOUDY    37  36  93 E3        29.95F
ALEXANDRIA     CLOUDY    37  32  82 NE5       29.96F
ELBOW LAKE     CLOUDY    36  33  89 E5        29.97S
WADENA         CLOUDY    34  30  86 CALM      29.96F
GLENWOOD       SUNNY     36  32  87 NE7       29.96F
APPLETON       CLOUDY    37  34  87 CALM      29.96F
BENSON         CLOUDY    39  32  75 E5        29.98S
ORTONVILLE     CLOUDY    36  34  93 E7        29.96S FOG
MADISON        CLOUDY    39  39 100 NE6       29.96F FOG
WILLMAR        CLOUDY    36  36 100 NE5       29.97S FOG
$$
MNZ033>034-036-042>043-049>051-058-059-261600-
   Central Minnesota

CITY           SKY/WX    TMP DP  RH WIND       PRES   REMARKS
ST CLOUD       CLOUDY    35  34  96 NE6       29.96S WCI  30
SAUK CENTRE    CLOUDY    33  32  95 NE5       29.97S FOG     WCI  29
PAYNESVILLE      N/A     34  34 100 NE5       29.96S WCI  30
AITKIN         CLOUDY    36  30  80 N3        29.96F FOG
PINE RIVER     CLOUDY    34  30  86 E3        30.01S
BRAINERD       MIX PCPN  33  32  96 NE3       29.98S FOG
STAPLES        CLOUDY    34  30  86 NE3       29.97S
LONG PRAIRIE   CLOUDY    34  32  93 N5        29.97S WCI  30
LITTLE FALLS     N/A    N/A N/A N/A CALM        N/A
LITCHFIELD     DRIZZLE   36  36 100 NE6       29.96S
BUFFALO        CLOUDY    36  34  93 N7        29.96F
MAPLE LAKE     DRIZZLE   36  36  99 N5        29.97S
HUTCHINSON     DRIZZLE   37  36  97 N6        29.96S
$$
MNZ037-044-045-052-053-261600-
   East Central Minnesota

CITY           SKY/WX    TMP DP  RH WIND       PRES   REMARKS
PRINCETON      DRIZZLE   36  36 100 N6        29.96F
MORA           DRIZZLE   32  32 100 NE5       29.98F WCI  27
CAMBRIDGE      RAIN      37  34  87 NE5       29.94F
RUSH CITY      LGT RAIN  35  33  95 N5        29.96F WCI  31
MOOSE LAKE     CLOUDY    32  32 100 NE5       29.96F FOG     WCI  27
CLOQUET        CLOUDY    34  30  86 NE5       29.97S FOG     WCI  30
MCGREGOR       CLOUDY    32  32 100 NE3       29.98F
$$
MNZ071>073-080-081-089-090-097-098-261600-
   Southwest Minnesota

CITY           SKY/WX    TMP DP  RH WIND       PRES   REMARKS
MONTEVIDEO     CLOUDY    36  36 100 E6        29.98S FOG
GRANITE FALLS  CLOUDY    38  37  94 NE6       29.97F FOG
CANBY          CLOUDY    38  38  99 CALM      29.97S FOG
MARSHALL       CLOUDY    37  36  96 NE9       29.95S FOG
REDWOOD FALLS  CLOUDY    37  34  89 NE6       29.94F
OLIVIA         CLOUDY    34  32  93 NE7       29.95S WCI  28
PIPESTONE      CLOUDY    37  34  87 E7        29.92R FOG
WINDOM         CLOUDY    37  37 100 NE9       29.92S
WORTHINGTON    CLOUDY    36  35  96 NE12      29.92S
JACKSON        CLOUDY    36  36 100 NE9       29.92R FOG
TRACY          CLOUDY    37  37 100 NE9       29.94S FOG
SLAYTON        CLOUDY    35  35 100 NE8       29.93S FOG     WCI  28
$$
MNZ065>067-074>077-082>085-091>093-261600-
   South Central Minnesota

CITY           SKY/WX    TMP DP  RH WIND       PRES   REMARKS
MANKATO        CLOUDY    37  35  92 N9        29.93S FOG
NEW ULM        CLOUDY    37  36  93 NE7       29.93F FOG
ST JAMES       CLOUDY    36  36 100 CALM      29.94F FOG
FAIRMONT       CLOUDY    37  36  96 N10       29.92S FOG
GLENCOE        CLOUDY    37  37 100 NE5       29.94S
FARIBAULT      CLOUDY    36  36 100 N5        29.93S FOG
OWATONNA       CLOUDY    36  36 100 NE6       29.91F FOG
WASECA         CLOUDY    36  36 100 N8        29.93S FOG
ALBERT LEA     CLOUDY    36  36 100 NE6       29.90S FOG
$$
MNZ078>079-086>088-094>096-261600-
   Southeast Minnesota

CITY           SKY/WX    TMP DP  RH WIND       PRES   REMARKS
ROCHESTER      FOG       35  35 100 N9        29.89F VSB 1   WCI  28
RED WING       CLOUDY    37  36  93 NE5       29.93S FOG
STANTON        CLOUDY    37  36  95 NE8       29.92S FOG
DODGE CENTER   FOG       36  36 100 N8        29.90S VSB 3/4
WINONA         CLOUDY    37  34  87 CALM      29.92S
AUSTIN         CLOUDY    36  34  93 NE6       29.89S FOG
PRESTON        CLOUDY    35  34  96 N6        29.89S FOG     WCI  30
$$
ABBREVIATIONS USED IN REMARKS
   TC - TEMPERATURES IN CELSIUS
  WCI - WIND CHILL INDEX
   HX - HEAT INDEX
  VSB - VISIBILITY
$$




USA.gov is the U.S. government's official web portal to all federal, state and local government web resources and services.